WetterOnline ( https://www.wetteronline.de )

Wetter aktuell Ahaus

Aktuelles Wetter: Ahaus (46m)

6-stündlich | Neueste Meldungen
Ortszeit Temperatur Wetter
Mo, 10.08. 2:00 17.4° C wolkenlos
So, 09.08. 20:00 26.2° C leicht bewölkt
So, 09.08. 14:00 30.1° C bedeckt
So, 09.08. 8:00 21.0° C bedeckt
So, 09.08. 2:00 22.8° C bewölkt
Sa, 08.08. 20:00 30.9° C leicht bewölkt
Sa, 08.08. 14:00 32.7° C wolkenlos
Sa, 08.08. 8:00 19.9° C wolkenlos
Ortszeit Temperatur Wetter
Mo, 10.08. 7:00 17.7° C fast wolkenlos
Mo, 10.08. 6:50 17.7° C fast wolkenlos
Mo, 10.08. 6:40 17.3° C fast wolkenlos
Mo, 10.08. 6:30 15.6° C leicht bewölkt
Mo, 10.08. 6:20 15.6° C leicht bewölkt
Mo, 10.08. 6:10 15.8° C leicht bewölkt
Mo, 10.08. 6:00 15.9° C leicht bewölkt
Mo, 10.08. 5:30 15.8° C leicht bewölkt
Mo, 10.08. 5:00 16.0° C wolkig
Mo, 10.08. 4:30 15.8° C wolkenlos
Mo, 10.08. 4:00 16.3° C wolkenlos
Ortszeit Relative Feuchte Sichtweite
Mo, 10.08. 2:00 89% 26 km
So, 09.08. 20:00 54% 45 km
So, 09.08. 14:00 48% 40 km
So, 09.08. 8:00 74% 30 km
So, 09.08. 2:00 63% 40 km
Sa, 08.08. 20:00 33% 65 km
Sa, 08.08. 14:00 27% 65 km
Sa, 08.08. 8:00 67% 28 km
Ortszeit Relative Feuchte Sichtweite
Mo, 10.08. 7:00 88% 16 km
Mo, 10.08. 6:50 88% -
Mo, 10.08. 6:40 89% -
Mo, 10.08. 6:30 94% 8 km
Mo, 10.08. 6:20 94% -
Mo, 10.08. 6:10 94% -
Mo, 10.08. 6:00 93% 12 km
Mo, 10.08. 5:30 94% 11 km
Mo, 10.08. 5:00 94% 15 km
Mo, 10.08. 4:30 93% 13 km
Mo, 10.08. 4:00 93% 18 km
Ortszeit Niederschlagsmenge Niederschlagsart
Mo, 10.08. 2:00 0.0 l/m2 in 6 Std. -
So, 09.08. 20:00 0.0 l/m2 in 12 Std. -
So, 09.08. 14:00 0.0 l/m2 in 6 Std. -
So, 09.08. 8:00 0.0 l/m2 in 12 Std. -
So, 09.08. 2:00 0.0 l/m2 in 6 Std. -
Sa, 08.08. 20:00 0.0 l/m2 in 12 Std. -
Sa, 08.08. 14:00 0.0 l/m2 in 6 Std. -
Sa, 08.08. 8:00 0.0 l/m2 in 12 Std. -
Ortszeit Niederschlagsmenge Niederschlagsart
Mo, 10.08. 7:00 0.0 l/m2 in 1 Std. -
Mo, 10.08. 6:50 keine Meldung -
Mo, 10.08. 6:40 keine Meldung -
Mo, 10.08. 6:30 0.0 l/m2 in 1 Std. -
Mo, 10.08. 6:20 keine Meldung -
Mo, 10.08. 6:10 keine Meldung -
Mo, 10.08. 6:00 0.0 l/m2 in 1 Std. -
Mo, 10.08. 5:30 0.0 l/m2 in 1 Std. -
Mo, 10.08. 5:00 0.0 l/m2 in 1 Std. -
Mo, 10.08. 4:30 0.0 l/m2 in 1 Std. -
Mo, 10.08. 4:00 0.0 l/m2 in 1 Std. -
Ortszeit Stärke Spitze Richtung
km/h Bft. km/h Grad Sektor
Mo, 10.08. 2:00 6 1 20 30° NO
So, 09.08. 20:00 11 2 36 120° SO
So, 09.08. 14:00 7 2 22 10° N
So, 09.08. 8:00 11 2 17 10° N
So, 09.08. 2:00 7 2 22 20° N
Sa, 08.08. 20:00 11 2 25 360° N
Sa, 08.08. 14:00 11 2 18 20° N
Sa, 08.08. 8:00 7 2 29 130° SO
Ortszeit Stärke Spitze Richtung
km/h Bft. km/h Grad Sektor
Mo, 10.08. 7:00 11 2 19 40° NO
Mo, 10.08. 6:50 11 2 - 40° NO
Mo, 10.08. 6:40 11 2 - 70° O
Mo, 10.08. 6:30 7 2 11 50° NO
Mo, 10.08. 6:20 7 2 - 50° NO
Mo, 10.08. 6:10 7 2 - 30° NO
Mo, 10.08. 6:00 9 2 22 10° N
Mo, 10.08. 5:30 7 2 22 360° N
Mo, 10.08. 5:00 11 2 25 180° S
Mo, 10.08. 4:30 13 3 22 160° S
Mo, 10.08. 4:00 6 1 7 360° N
Ortszeit Untergrenze Bedeckung Gattung
total tief tief mittel hoch
Mo, 10.08. 2:00 - 0/8 0/8 - - -
So, 09.08. 20:00 12000 m 3/8 0/8 - - -
So, 09.08. 14:00 3600 m 8/8 8/8 - - -
So, 09.08. 8:00 4500 m 8/8 8/8 - - -
So, 09.08. 2:00 5100 m 8/8 7/8 - - -
Sa, 08.08. 20:00 7200 m 7/8 0/8 - - -
Sa, 08.08. 14:00 - 0/8 0/8 - - -
Sa, 08.08. 8:00 - 0/8 0/8 - - -
Ortszeit Bedeckungsgrad in Achtel und Wolkenuntergrenze
Mo, 10.08. 7:00 1(10500m)
Mo, 10.08. 6:50 1(10500m)
Mo, 10.08. 6:40 2(12000m)
Mo, 10.08. 6:30 4(12000m)
Mo, 10.08. 6:20 4(12000m)
Mo, 10.08. 6:10 4(12000m)
Mo, 10.08. 6:00 4(10500m)
Mo, 10.08. 5:30 1(2700m) 3(10500m)
Mo, 10.08. 5:00 6(2700m)
Mo, 10.08. 4:30 keine Wolken
Mo, 10.08. 4:00 keine Wolken
Ortszeit Luftdruck NN (hPa) Tendenz (hPa in 3 Std.)
Mo, 10.08. 2:00 1017 0,0
So, 09.08. 20:00 1016 + 0,3
So, 09.08. 14:00 1017 - 0,6
So, 09.08. 8:00 1018 + 0,2
So, 09.08. 2:00 1019 - 0,4
Sa, 08.08. 20:00 1018 - 0,4
Sa, 08.08. 14:00 1019 - 0,6
Sa, 08.08. 8:00 1020 + 0,8
Ortszeit Luftdruck NN (hPa) Tendenz (hPa in 3 Std.)
Mo, 10.08. 7:00 1016 - 0,5
Mo, 10.08. 6:50 1016 keine Meldung
Mo, 10.08. 6:40 1016 keine Meldung
Mo, 10.08. 6:30 1016 - 0,5
Mo, 10.08. 6:20 1016 keine Meldung
Mo, 10.08. 6:10 1016 keine Meldung
Mo, 10.08. 6:00 1016 - 0,6
Mo, 10.08. 5:30 1016 - 0,6
Mo, 10.08. 5:00 1016 - 0,4
Mo, 10.08. 4:30 1017 - 0,1
Mo, 10.08. 4:00 1017 - 0,2
Ortszeit Schneehöhe (cm)
Mo, 10.08. 2:00 -
So, 09.08. 20:00 -
So, 09.08. 14:00 -
So, 09.08. 8:00 -
So, 09.08. 2:00 -
Sa, 08.08. 20:00 -
Sa, 08.08. 14:00 -
Sa, 08.08. 8:00 -
Ortszeit Schneehöhe (cm)
Mo, 10.08. 7:00 -
Mo, 10.08. 6:50 -
Mo, 10.08. 6:40 -
Mo, 10.08. 6:30 -
Mo, 10.08. 6:20 -
Mo, 10.08. 6:10 -
Mo, 10.08. 6:00 -
Mo, 10.08. 5:30 -
Mo, 10.08. 5:00 -
Mo, 10.08. 4:30 -
Mo, 10.08. 4:00 -
Link zu dieser Seite / Seite empfehlen

Das Wetter in ...